TimeCST,TemperatureF,Dew PointF,Humidity,Sea Level PressureIn,VisibilityMPH,Wind Direction,Wind SpeedMPH,Gust SpeedMPH,PrecipitationIn,Events,Conditions,WindDirDegrees,DateUTC
12:53 AM,24.1,14.0,65,29.82,10.0,South,18.4,27.6,N/A,,Clear,190,2014-01-04 06:53:00
1:53 AM,25.0,15.1,66,29.82,10.0,South,20.7,-,N/A,,Clear,190,2014-01-04 07:53:00
2:53 AM,25.0,15.1,66,29.82,10.0,South,21.9,31.1,N/A,,Clear,190,2014-01-04 08:53:00
3:53 AM,25.0,16.0,69,29.83,10.0,SSW,20.7,-,N/A,,Clear,200,2014-01-04 09:53:00
4:53 AM,26.1,16.0,66,29.83,10.0,SSW,18.4,31.1,N/A,,Clear,210,2014-01-04 10:53:00
5:53 AM,26.1,17.1,69,29.84,10.0,SSW,19.6,28.8,N/A,,Clear,200,2014-01-04 11:53:00
6:53 AM,27.0,17.1,66,29.84,10.0,SSW,17.3,-,N/A,,Clear,200,2014-01-04 12:53:00
8:53 AM,28.0,19.0,69,29.87,10.0,SSW,15.0,-,N/A,,Partly Cloudy,200,2014-01-04 14:53:00
9:53 AM,28.9,19.9,69,29.89,10.0,SW,15.0,-,N/A,,Clear,220,2014-01-04 15:53:00
10:53 AM,32.0,21.0,64,29.88,10.0,SW,17.3,-,N/A,,Overcast,220,2014-01-04 16:53:00
11:53 AM,33.1,21.9,64,29.86,9.0,SSW,11.5,-,N/A,,Overcast,210,2014-01-04 17:53:00
12:15 PM,33.1,21.9,64,29.83,10.0,SSW,9.2,-,N/A,,Overcast,210,2014-01-04 18:15:00
12:53 PM,33.1,23.0,66,29.85,10.0,SSW,10.4,-,N/A,,Overcast,210,2014-01-04 18:53:00
1:53 PM,34.0,24.1,67,29.88,10.0,SW,9.2,-,N/A,,Overcast,230,2014-01-04 19:53:00
2:53 PM,30.0,24.1,79,29.92,8.0,NW,13.8,-,N/A,,Overcast,320,2014-01-04 20:53:00
3:53 PM,25.0,19.9,81,29.95,6.0,NNW,10.4,-,0.00,Snow,Light Snow,330,2014-01-04 21:53:00
4:23 PM,24.1,19.0,81,29.93,2.5,NNW,13.8,-,0.00,Snow,Light Snow,330,2014-01-04 22:23:00
4:44 PM,21.9,18.0,85,29.94,1.2,NNW,12.7,-,0.00,Snow,Light Snow,330,2014-01-04 22:44:00
4:53 PM,21.9,18.0,85,29.98,1.2,NNW,12.7,-,0.00,Snow,Light Snow,330,2014-01-04 22:53:00
5:30 PM,21.0,18.0,88,29.96,1.0,NNW,10.4,19.6,0.00,Snow,Light Snow,330,2014-01-04 23:30:00
5:53 PM,19.9,17.1,89,30.01,1.5,NNW,11.5,-,0.00,Snow,Light Snow,340,2014-01-04 23:53:00
6:10 PM,19.9,17.1,89,29.97,2.0,NNW,13.8,-,0.00,Snow,Light Snow,340,2014-01-05 00:10:00
6:32 PM,19.9,16.0,85,29.98,2.5,NNW,11.5,-,0.00,Snow,Light Snow,340,2014-01-05 00:32:00
6:41 PM,19.9,16.0,85,29.99,3.0,NNW,10.4,-,0.00,Snow,Light Snow,330,2014-01-05 00:41:00
6:53 PM,19.9,17.1,89,30.03,2.5,NNW,9.2,-,0.00,Snow,Light Snow,330,2014-01-05 00:53:00
7:04 PM,19.9,17.1,89,29.99,1.8,NNW,9.2,-,0.00,Snow,Light Snow,330,2014-01-05 01:04:00
7:16 PM,19.9,17.1,89,30.00,1.5,NNW,9.2,-,0.00,Snow,Light Snow,330,2014-01-05 01:16:00
7:53 PM,19.9,17.1,89,30.01,1.2,NNW,10.4,-,0.00,Snow,Light Snow,340,2014-01-05 01:53:00
8:07 PM,19.9,17.1,89,30.01,0.8,NNW,10.4,-,0.00,Snow,Light Snow,330,2014-01-05 02:07:00
8:17 PM,19.9,17.1,89,30.02,1.2,NNW,10.4,-,0.00,Snow,Light Snow,340,2014-01-05 02:17:00
8:30 PM,19.9,16.0,85,30.02,1.5,NNW,11.5,-,0.00,Snow,Light Snow,340,2014-01-05 02:30:00
8:53 PM,19.0,16.0,88,30.05,1.5,NNW,9.2,-,0.00,Snow,Light Snow,330,2014-01-05 02:53:00
9:53 PM,19.0,15.1,85,30.07,1.2,NNW,10.4,-,0.00,Snow,Light Snow,340,2014-01-05 03:53:00
10:19 PM,19.0,15.1,85,30.04,1.2,NNW,12.7,-,0.00,Snow,Light Snow,340,2014-01-05 04:19:00
10:53 PM,19.0,15.1,85,30.06,1.2,NNW,11.5,-,0.00,Snow,Light Snow,340,2014-01-05 04:53:00
11:36 PM,18.0,15.1,88,30.03,1.2,North,17.3,-,0.00,Snow,Light Snow,350,2014-01-05 05:36:00
11:53 PM,18.0,15.1,88,30.06,1.8,NNW,12.7,-,0.00,Snow,Light Snow,340,2014-01-05 05:53:00